| time (UTC) | temp F | wind direction | speed MPH | gust MPH | rain 1hr in | rain 24hr in | rain mn in | humidity % | barometer mb |
| 20260509004235 | 61 | 169 | 0.0 | 0.0 | 0.31 | 0.42 | 0.42 | 95 | 1008.4 |
| 20260509003733 | 61 | 147 | 0.0 | 1.0 | 0.83 | 0.41 | 0.41 | 95 | 1008.5 |
| 20260509003231 | 61 | 184 | 0.0 | 0.0 | 0.78 | 0.35 | 0.35 | 95 | 1008.6 |
| 20260509002728 | 61 | 316 | 3.0 | 3.0 | 0.66 | 0.26 | 0.26 | 95 | 1009.0 |
| 20260509002225 | 62 | 18 | 7.0 | 9.0 | 0.40 | 0.19 | 0.19 | 94 | 1009.2 |
| 20260509001723 | 62 | 26 | 7.0 | 9.0 | 0.05 | 0.13 | 0.13 | 95 | 1008.9 |
| 20260509001218 | 62 | 347 | 6.0 | 9.0 | 0.00 | 0.12 | 0.12 | 95 | 1009.2 |
| 20260509000717 | 62 | 312 | 4.0 | 5.0 | 0.00 | 0.12 | 0.12 | 95 | 1008.1 |
| 20260509000214 | 62 | 284 | 1.0 | 1.0 | 0.00 | 0.12 | 0.12 | 94 | 1007.5 |
| 20260508235710 | 63 | 213 | 0.0 | 0.0 | 0.00 | 0.12 | 0.12 | 94 | 1007.3 |
| 20260508235207 | 63 | 205 | 0.0 | 0.0 | 0.00 | 0.12 | 0.12 | 93 | 1007.4 |
| 20260508234705 | 63 | 189 | 0.0 | 0.0 | 0.00 | 0.12 | 0.12 | 93 | 1007.2 |
| 20260508234200 | 63 | 254 | 0.0 | 1.0 | 0.00 | 0.12 | 0.12 | 93 | 1007.3 |
| 20260508233654 | 63 | 259 | 1.0 | 2.0 | 0.00 | 0.12 | 0.12 | 92 | 1007.2 |
| 20260508233151 | 64 | 157 | 0.0 | 0.0 | 0.00 | 0.12 | 0.12 | 91 | 1007.2 |
| 20260508232649 | 64 | 127 | 0.0 | 0.0 | 0.00 | 0.12 | 0.12 | 91 | 1007.2 |
| 20260508232145 | 64 | 61 | 1.0 | 1.0 | 0.00 | 0.12 | 0.12 | 90 | 1007.5 |
| 20260508231643 | 64 | 158 | 0.0 | 0.0 | 0.00 | 0.12 | 0.12 | 90 | 1007.6 |
| 20260508231140 | 65 | 41 | 1.0 | 1.0 | 0.00 | 0.12 | 0.12 | 89 | 1007.7 |
| 20260508230637 | 65 | 177 | 0.0 | 0.0 | 0.00 | 0.12 | 0.12 | 88 | 1007.7 |
| 20260508230133 | 66 | 191 | 0.0 | 0.0 | 0.00 | 0.12 | 0.12 | 87 | 1007.7 |
| 20260508225631 | 66 | 196 | 0.0 | 0.0 | 0.00 | 0.12 | 0.12 | 87 | 1007.9 |
| 20260508225127 | 65 | 171 | 1.0 | 1.0 | 0.00 | 0.12 | 0.12 | 88 | 1007.7 |
| 20260508224625 | 65 | 183 | 0.0 | 0.0 | 0.00 | 0.12 | 0.12 | 88 | 1008.2 |
| 20260508224122 | 66 | 184 | 1.0 | 1.0 | 0.00 | 0.12 | 0.12 | 88 | 1008.1 |
| 20260508223620 | 66 | 189 | 1.0 | 1.0 | 0.00 | 0.12 | 0.12 | 90 | 1008.4 |
| 20260508223117 | 64 | 194 | 0.0 | 0.0 | 0.00 | 0.12 | 0.12 | 92 | 1008.5 |
| 20260508222614 | 64 | 190 | 1.0 | 1.0 | 0.00 | 0.12 | 0.12 | 93 | 1008.5 |
| 20260508222111 | 63 | 196 | 1.0 | 1.0 | 0.07 | 0.12 | 0.12 | 95 | 1008.3 |
| 20260508221607 | 62 | 78 | 1.0 | 1.0 | 0.07 | 0.12 | 0.12 | 95 | 1008.3 |
| 20260508221103 | 61 | 68 | 2.0 | 3.0 | 0.12 | 0.11 | 0.11 | 94 | 1008.4 |
| 20260508220600 | 62 | 185 | 0.0 | 0.0 | 0.19 | 0.10 | 0.10 | 94 | 1008.7 |
| 20260508220056 | 62 | 187 | 0.0 | 0.0 | 0.19 | 0.09 | 0.09 | 94 | 1009.0 |
| 20260508215553 | 62 | 179 | 0.0 | 0.0 | 0.12 | 0.07 | 0.07 | 94 | 1009.2 |
| 20260508215050 | 63 | 187 | 0.0 | 0.0 | 0.12 | 0.06 | 0.06 | 94 | 1009.4 |
| 20260508214547 | 63 | 153 | 0.0 | 0.0 | 0.19 | 0.05 | 0.05 | 93 | 1009.3 |
| 20260508214043 | 63 | 175 | 1.0 | 1.0 | 0.17 | 0.04 | 0.04 | 93 | 1009.4 |
| 20260508213541 | 63 | 238 | 0.0 | 1.0 | 0.05 | 0.02 | 0.02 | 92 | 1009.5 |
| 20260508213037 | 64 | 321 | 1.0 | 1.0 | 0.07 | 0.01 | 0.01 | 91 | 1009.5 |
| 20260508212533 | 64 | 356 | 2.0 | 2.0 | 0.07 | 0.01 | 0.01 | 90 | 1009.5 |
| 20260508212030 | 65 | 15 | 2.0 | 2.0 | 0.00 | 0.00 | 0.00 | 87 | 1009.4 |
| 20260508211525 | 66 | 166 | 0.0 | 0.0 | 0.00 | 0.00 | 0.00 | 86 | 1009.8 |
| 20260508211022 | 66 | 166 | 0.0 | 0.0 | 0.00 | 0.00 | 0.00 | 83 | 1009.5 |
| 20260508210518 | 67 | 154 | 0.0 | 0.0 | 0.00 | 0.00 | 0.00 | 82 | 1009.7 |
| 20260508210016 | 67 | 350 | 1.0 | 2.0 | 0.00 | 0.00 | 0.00 | 78 | 1009.7 |
| 20260508205513 | 67 | 334 | 2.0 | 2.0 | 0.00 | 0.00 | 0.00 | 80 | 1009.4 |
| 20260508205009 | 69 | 312 | 2.0 | 2.0 | 0.00 | 0.00 | 0.00 | 80 | 1009.3 |
| 20260508204507 | 70 | 222 | 0.0 | 0.0 | 0.00 | 0.00 | 0.00 | 78 | 1008.8 |
| 20260508204002 | 70 | 224 | 0.0 | 1.0 | 0.00 | 0.00 | 0.00 | 70 | 1008.4 |
| 20260508203458 | 70 | 152 | 1.0 | 2.0 | 0.00 | 0.00 | 0.00 | 74 | 1008.7 |
| 20260508202954 | 72 | 176 | 0.0 | 1.0 | 0.00 | 0.00 | 0.00 | 69 | 1008.9 |
| 20260508202451 | 72 | 197 | 0.0 | 0.0 | 0.00 | 0.00 | 0.00 | 63 | 1009.3 |
| 20260508201948 | 71 | 201 | 0.0 | 0.0 | 0.00 | 0.00 | 0.00 | 63 | 1009.2 |
| 20260508201444 | 71 | 215 | 0.0 | 0.0 | 0.00 | 0.00 | 0.00 | 66 | 1009.3 |
| 20260508200941 | 71 | 296 | 2.0 | 2.0 | 0.00 | 0.00 | 0.00 | 67 | 1009.6 |
| 20260508200438 | 72 | 174 | 0.0 | 0.0 | 0.00 | 0.00 | 0.00 | 62 | 1009.7 |
| 20260508195933 | 72 | 206 | 0.0 | 0.0 | 0.00 | 0.00 | 0.00 | 64 | 1010.0 |
| 20260508195431 | 72 | 202 | 0.0 | 0.0 | 0.00 | 0.00 | 0.00 | 64 | 1009.8 |
| 20260508194926 | 71 | 262 | 1.0 | 1.0 | 0.00 | 0.00 | 0.00 | 61 | 1009.7 |
| 20260508194418 | 72 | 206 | 0.0 | 0.0 | 0.00 | 0.00 | 0.00 | 60 | 1010.0 |
| 20260508193915 | 72 | 240 | 0.0 | 0.0 | 0.00 | 0.00 | 0.00 | 59 | 1010.1 |
| 20260508193411 | 73 | 320 | 3.0 | 3.0 | 0.00 | 0.00 | 0.00 | 58 | 1010.3 |
| 20260508192902 | 73 | 246 | 1.0 | 2.0 | 0.00 | 0.00 | 0.00 | 58 | 1010.3 |
| 20260508192359 | 73 | 10 | 3.0 | 3.0 | 0.00 | 0.00 | 0.00 | 59 | 1010.0 |
| 20260508191856 | 73 | 191 | 1.0 | 2.0 | 0.00 | 0.00 | 0.00 | 58 | 1010.3 |
| 20260508191354 | 72 | 247 | 0.0 | 0.0 | 0.00 | 0.00 | 0.00 | 60 | 1010.1 |
| 20260508190850 | 72 | 213 | 0.0 | 1.0 | 0.00 | 0.00 | 0.00 | 63 | 1010.1 |
| 20260508190347 | 71 | 275 | 2.0 | 2.0 | 0.00 | 0.00 | 0.00 | 64 | 1010.5 |
| 20260508185843 | 70 | 227 | 2.0 | 2.0 | 0.00 | 0.00 | 0.00 | 63 | 1010.6 |
| 20260508185341 | 70 | 240 | 3.0 | 3.0 | 0.00 | 0.00 | 0.00 | 62 | 1010.6 |
| 20260508184838 | 70 | 214 | 1.0 | 2.0 | 0.00 | 0.00 | 0.00 | 67 | 1010.6 |
| 20260508184336 | 70 | 229 | 4.0 | 5.0 | 0.00 | 0.00 | 0.00 | 61 | 1010.7 |
| 20260508183832 | 71 | 215 | 5.0 | 5.0 | 0.00 | 0.00 | 0.00 | 63 | 1010.8 |
| 20260508183329 | 72 | 176 | 6.0 | 6.0 | 0.00 | 0.00 | 0.00 | 61 | 1010.5 |
| 20260508182824 | 71 | 263 | 5.0 | 6.0 | 0.00 | 0.00 | 0.00 | 61 | 1010.5 |
| 20260508182321 | 71 | 256 | 3.0 | 3.0 | 0.00 | 0.00 | 0.00 | 64 | 1010.7 |
| 20260508181816 | 70 | 213 | 1.0 | 1.0 | 0.00 | 0.00 | 0.00 | 65 | 1010.6 |
| 20260508181308 | 69 | 211 | 3.0 | 3.0 | 0.00 | 0.00 | 0.00 | 61 | 1010.8 |
| 20260508180805 | 69 | 125 | 2.0 | 3.0 | 0.00 | 0.00 | 0.00 | 64 | 1010.7 |
| 20260508180302 | 69 | 173 | 2.0 | 2.0 | 0.00 | 0.00 | 0.00 | 63 | 1010.7 |
| 20260508175758 | 68 | 202 | 2.0 | 2.0 | 0.00 | 0.00 | 0.00 | 66 | 1010.9 |
| 20260508175255 | 68 | 212 | 4.0 | 5.0 | 0.00 | 0.00 | 0.00 | 66 | 1011.2 |
| 20260508174753 | 67 | 190 | 3.0 | 3.0 | 0.00 | 0.00 | 0.00 | 65 | 1011.0 |
| 20260508174250 | 67 | 220 | 2.0 | 2.0 | 0.00 | 0.00 | 0.00 | 66 | 1011.0 |
| 20260508173747 | 67 | 184 | 5.0 | 6.0 | 0.00 | 0.00 | 0.00 | 64 | 1011.2 |
| 20260508173242 | 67 | 216 | 3.0 | 3.0 | 0.00 | 0.00 | 0.00 | 65 | 1011.3 |
| 20260508172739 | 67 | 191 | 4.0 | 5.0 | 0.00 | 0.00 | 0.00 | 66 | 1011.3 |
| 20260508172237 | 66 | 200 | 3.0 | 3.0 | 0.00 | 0.00 | 0.00 | 66 | 1011.6 |
| 20260508171733 | 66 | 194 | 3.0 | 3.0 | 0.00 | 0.00 | 0.00 | 66 | 1011.6 |
| 20260508171229 | 66 | 196 | 3.0 | 3.0 | 0.00 | 0.00 | 0.00 | 66 | 1011.4 |
| 20260508170726 | 66 | 176 | 5.0 | 6.0 | 0.00 | 0.00 | 0.00 | 65 | 1011.6 |
| 20260508170224 | 66 | 168 | 3.0 | 3.0 | 0.00 | 0.00 | 0.00 | 66 | 1011.8 |
| 20260508165720 | 66 | 205 | 3.0 | 3.0 | 0.00 | 0.00 | 0.00 | 65 | 1012.1 |
| 20260508165218 | 66 | 210 | 3.0 | 3.0 | 0.00 | 0.00 | 0.00 | 68 | 1012.0 |
| 20260508164714 | 66 | 192 | 4.0 | 5.0 | 0.00 | 0.00 | 0.00 | 65 | 1011.9 |
| 20260508164211 | 66 | 193 | 4.0 | 5.0 | 0.00 | 0.00 | 0.00 | 65 | 1011.9 |
| 20260508163709 | 66 | 216 | 4.0 | 5.0 | 0.00 | 0.00 | 0.00 | 65 | 1012.2 |
| 20260508163206 | 66 | 216 | 3.0 | 3.0 | 0.00 | 0.00 | 0.00 | 65 | 1012.3 |
| 20260508162701 | 66 | 203 | 2.0 | 2.0 | 0.00 | 0.00 | 0.00 | 67 | 1012.2 |
| 20260508162159 | 66 | 212 | 3.0 | 5.0 | 0.00 | 0.00 | 0.00 | 66 | 1012.3 |
| 20260508161656 | 65 | 184 | 3.0 | 5.0 | 0.00 | 0.00 | 0.00 | 66 | 1012.3 |
| 20260508161153 | 65 | 234 | 4.0 | 5.0 | 0.00 | 0.00 | 0.00 | 68 | 1012.2 |
| 20260508160651 | 65 | 154 | 4.0 | 5.0 | 0.00 | 0.00 | 0.00 | 69 | 1012.3 |
| 20260508160149 | 64 | 204 | 5.0 | 7.0 | 0.00 | 0.00 | 0.00 | 66 | 1012.6 |
| 20260508155645 | 64 | 210 | 2.0 | 2.0 | 0.00 | 0.00 | 0.00 | 65 | 1012.4 |
| 20260508155142 | 64 | 184 | 4.0 | 5.0 | 0.00 | 0.00 | 0.00 | 68 | 1012.5 |
| 20260508154640 | 64 | 202 | 3.0 | 5.0 | 0.00 | 0.00 | 0.00 | 65 | 1012.9 |
| 20260508154136 | 63 | 176 | 2.0 | 2.0 | 0.00 | 0.00 | 0.00 | 67 | 1012.8 |
| 20260508153633 | 63 | 169 | 4.0 | 5.0 | 0.00 | 0.00 | 0.00 | 69 | 1012.8 |
| 20260508153130 | 63 | 209 | 3.0 | 3.0 | 0.00 | 0.00 | 0.00 | 67 | 1013.2 |
| 20260508152627 | 62 | 205 | 4.0 | 5.0 | 0.00 | 0.00 | 0.00 | 67 | 1012.8 |
| 20260508152121 | 62 | 195 | 5.0 | 6.0 | 0.00 | 0.00 | 0.00 | 66 | 1013.1 |
| 20260508151618 | 62 | 172 | 4.0 | 5.0 | 0.00 | 0.00 | 0.00 | 67 | 1013.0 |
| 20260508151110 | 61 | 212 | 6.0 | 7.0 | 0.00 | 0.00 | 0.00 | 66 | 1013.1 |
| 20260508150607 | 61 | 196 | 6.0 | 7.0 | 0.00 | 0.00 | 0.00 | 68 | 1013.2 |
| 20260508145559 | 60 | 190 | 4.0 | 6.0 | 0.00 | 0.00 | 0.00 | 67 | 1013.2 |
| 20260508145056 | 60 | 201 | 3.0 | 3.0 | 0.00 | 0.00 | 0.00 | 68 | 1013.4 |
| 20260508144554 | 60 | 197 | 5.0 | 6.0 | 0.00 | 0.00 | 0.00 | 68 | 1013.7 |
| 20260508144051 | 60 | 184 | 4.0 | 5.0 | 0.00 | 0.00 | 0.00 | 69 | 1013.3 |
| 20260508143548 | 60 | 196 | 4.0 | 5.0 | 0.00 | 0.00 | 0.00 | 69 | 1013.5 |
| 20260508143045 | 60 | 169 | 4.0 | 5.0 | 0.00 | 0.00 | 0.00 | 72 | 1013.7 |
| 20260508142542 | 59 | 201 | 2.0 | 2.0 | 0.00 | 0.00 | 0.00 | 69 | 1013.7 |
| 20260508142038 | 59 | 191 | 2.0 | 2.0 | 0.00 | 0.00 | 0.00 | 73 | 1014.0 |
| 20260508141535 | 59 | 180 | 1.0 | 1.0 | 0.00 | 0.00 | 0.00 | 74 | 1014.1 |
| 20260508141032 | 59 | 214 | 0.0 | 0.0 | 0.00 | 0.00 | 0.00 | 73 | 1014.1 |
| 20260508140529 | 59 | 208 | 0.0 | 0.0 | 0.00 | 0.00 | 0.00 | 70 | 1013.8 |
| 20260508140025 | 59 | 204 | 1.0 | 1.0 | 0.00 | 0.00 | 0.00 | 70 | 1014.1 |
| 20260508135516 | 59 | 205 | 0.0 | 1.0 | 0.00 | 0.00 | 0.00 | 70 | 1013.7 |
| 20260508135012 | 59 | 201 | 2.0 | 3.0 | 0.00 | 0.00 | 0.00 | 70 | 1014.1 |
| 20260508134509 | 59 | 213 | 2.0 | 2.0 | 0.00 | 0.00 | 0.00 | 72 | 1013.9 |
| 20260508134006 | 58 | 192 | 0.0 | 0.0 | 0.00 | 0.00 | 0.00 | 73 | 1014.1 |
| 20260508133503 | 58 | 231 | 0.0 | 1.0 | 0.00 | 0.00 | 0.00 | 72 | 1014.3 |
| 20260508133000 | 59 | 222 | 0.0 | 1.0 | 0.00 | 0.00 | 0.00 | 72 | 1013.7 |
| 20260508132458 | 58 | 205 | 0.0 | 1.0 | 0.00 | 0.00 | 0.00 | 71 | 1013.7 |
| 20260508131954 | 58 | 183 | 1.0 | 1.0 | 0.00 | 0.00 | 0.00 | 71 | 1013.8 |
| 20260508131450 | 58 | 191 | 2.0 | 2.0 | 0.00 | 0.00 | 0.00 | 71 | 1013.7 |
| 20260508130946 | 57 | 193 | 1.0 | 2.0 | 0.00 | 0.00 | 0.00 | 74 | 1013.6 |
| 20260508130443 | 57 | 204 | 0.0 | 0.0 | 0.00 | 0.00 | 0.00 | 74 | 1013.5 |
| 20260508125939 | 57 | 273 | 1.0 | 1.0 | 0.00 | 0.00 | 0.00 | 77 | 1013.6 |
| 20260508125436 | 56 | 206 | 0.0 | 0.0 | 0.00 | 0.00 | 0.00 | 73 | 1013.5 |
| 20260508124934 | 56 | 198 | 0.0 | 0.0 | 0.00 | 0.00 | 0.00 | 78 | 1013.5 |
| 20260508124431 | 56 | 247 | 0.0 | 1.0 | 0.00 | 0.00 | 0.00 | 78 | 1013.3 |
| 20260508123928 | 56 | 209 | 0.0 | 0.0 | 0.00 | 0.00 | 0.00 | 77 | 1013.3 |
| 20260508123427 | 56 | 165 | 0.0 | 0.0 | 0.00 | 0.00 | 0.00 | 78 | 1013.3 |
| 20260508122923 | 55 | 292 | 0.0 | 0.0 | 0.00 | 0.00 | 0.00 | 78 | 1013.0 |
| 20260508122420 | 55 | 241 | 0.0 | 0.0 | 0.00 | 0.00 | 0.00 | 78 | 1013.0 |
| 20260508121917 | 55 | 167 | 0.0 | 0.0 | 0.00 | 0.00 | 0.00 | 78 | 1013.3 |
| 20260508121415 | 55 | 145 | 0.0 | 0.0 | 0.00 | 0.00 | 0.00 | 74 | 1012.7 |
| 20260508120913 | 54 | 182 | 0.0 | 0.0 | 0.00 | 0.00 | 0.00 | 76 | 1012.9 |
| 20260508120411 | 54 | 140 | 0.0 | 0.0 | 0.00 | 0.00 | 0.00 | 78 | 1013.0 |
| 20260508115908 | 54 | 268 | 0.0 | 0.0 | 0.00 | 0.00 | 0.00 | 78 | 1012.9 |
| 20260508115406 | 55 | 306 | 1.0 | 1.0 | 0.00 | 0.00 | 0.00 | 78 | 1012.8 |
| 20260508114902 | 55 | 189 | 0.0 | 0.0 | 0.00 | 0.00 | 0.00 | 75 | 1012.6 |
| 20260508114359 | 55 | 194 | 0.0 | 0.0 | 0.00 | 0.00 | 0.00 | 75 | 1012.8 |
| 20260508113855 | 55 | 151 | 0.0 | 0.0 | 0.00 | 0.00 | 0.00 | 76 | 1012.7 |
| 20260508113353 | 55 | 171 | 0.0 | 0.0 | 0.00 | 0.00 | 0.00 | 76 | 1012.5 |
| 20260508112850 | 55 | 180 | 0.0 | 0.0 | 0.00 | 0.00 | 0.00 | 77 | 1012.6 |
| 20260508112347 | 55 | 184 | 0.0 | 0.0 | 0.00 | 0.00 | 0.00 | 75 | 1012.6 |
| 20260508111843 | 55 | 179 | 1.0 | 1.0 | 0.00 | 0.00 | 0.00 | 74 | 1012.6 |
| 20260508111340 | 55 | 159 | 2.0 | 2.0 | 0.00 | 0.00 | 0.00 | 75 | 1012.4 |
| 20260508110838 | 55 | 160 | 2.0 | 2.0 | 0.00 | 0.00 | 0.00 | 77 | 1012.5 |
| 20260508110335 | 54 | 174 | 1.0 | 2.0 | 0.00 | 0.00 | 0.00 | 77 | 1012.4 |
| 20260508105835 | 54 | 172 | 0.0 | 0.0 | 0.00 | 0.00 | 0.00 | 78 | 1012.3 |
| 20260508105332 | 53 | 187 | 0.0 | 0.0 | 0.00 | 0.00 | 0.00 | 79 | 1012.6 |
| 20260508104829 | 53 | 175 | 0.0 | 0.0 | 0.00 | 0.00 | 0.00 | 77 | 1012.3 |
| 20260508104326 | 54 | 142 | 0.0 | 0.0 | 0.00 | 0.00 | 0.00 | 77 | 1012.4 |
| 20260508103823 | 54 | 173 | 0.0 | 0.0 | 0.00 | 0.00 | 0.00 | 77 | 1012.4 |
| 20260508103319 | 54 | 176 | 0.0 | 0.0 | 0.00 | 0.00 | 0.00 | 78 | 1012.5 |
| 20260508102817 | 53 | 175 | 0.0 | 0.0 | 0.00 | 0.00 | 0.00 | 78 | 1012.7 |
| 20260508102315 | 53 | 179 | 0.0 | 0.0 | 0.00 | 0.00 | 0.00 | 78 | 1012.7 |
| 20260508101812 | 53 | 184 | 0.0 | 0.0 | 0.00 | 0.00 | 0.00 | 78 | 1012.5 |
| 20260508101309 | 53 | 175 | 0.0 | 0.0 | 0.00 | 0.00 | 0.00 | 78 | 1012.5 |
| 20260508100806 | 53 | 171 | 0.0 | 0.0 | 0.00 | 0.00 | 0.00 | 78 | 1012.5 |
| 20260508100305 | 53 | 175 | 0.0 | 0.0 | 0.00 | 0.00 | 0.00 | 79 | 1012.7 |
| 20260508095800 | 53 | 168 | 0.0 | 1.0 | 0.00 | 0.00 | 0.00 | 80 | 1012.7 |
| 20260508095258 | 52 | 180 | 0.0 | 0.0 | 0.00 | 0.00 | 0.00 | 80 | 1012.9 |
| 20260508094755 | 52 | 186 | 0.0 | 0.0 | 0.00 | 0.00 | 0.00 | 80 | 1012.6 |
| 20260508094252 | 52 | 190 | 0.0 | 0.0 | 0.00 | 0.00 | 0.00 | 81 | 1012.6 |
| 20260508093749 | 52 | 179 | 0.0 | 0.0 | 0.00 | 0.00 | 0.00 | 81 | 1012.7 |
| 20260508093246 | 52 | 175 | 0.0 | 0.0 | 0.00 | 0.00 | 0.00 | 82 | 1012.9 |
| 20260508092743 | 51 | 169 | 0.0 | 0.0 | 0.00 | 0.00 | 0.00 | 81 | 1012.9 |
| 20260508092241 | 51 | 292 | 0.0 | 1.0 | 0.00 | 0.00 | 0.00 | 84 | 1012.8 |
| 20260508091739 | 50 | 202 | 0.0 | 0.0 | 0.00 | 0.00 | 0.00 | 86 | 1012.6 |
| 20260508091236 | 51 | 284 | 1.0 | 2.0 | 0.00 | 0.00 | 0.00 | 85 | 1012.7 |
| 20260508090734 | 51 | 142 | 0.0 | 1.0 | 0.00 | 0.00 | 0.00 | 86 | 1012.7 |
| 20260508090232 | 51 | 77 | 1.0 | 1.0 | 0.00 | 0.00 | 0.00 | 86 | 1012.8 |
| 20260508085727 | 51 | 126 | 1.0 | 1.0 | 0.00 | 0.00 | 0.00 | 85 | 1013.0 |
| 20260508085224 | 51 | 125 | 1.0 | 1.0 | 0.00 | 0.00 | 0.00 | 85 | 1012.7 |
| 20260508084720 | 51 | 62 | 1.0 | 1.0 | 0.00 | 0.00 | 0.00 | 86 | 1012.9 |
| 20260508084218 | 51 | 46 | 1.0 | 1.0 | 0.00 | 0.00 | 0.00 | 86 | 1012.9 |
| 20260508083715 | 51 | 95 | 1.0 | 1.0 | 0.00 | 0.00 | 0.00 | 86 | 1012.8 |
| 20260508083213 | 51 | 58 | 1.0 | 1.0 | 0.00 | 0.00 | 0.00 | 85 | 1013.0 |
| 20260508082708 | 51 | 125 | 1.0 | 1.0 | 0.00 | 0.00 | 0.00 | 84 | 1013.1 |
| 20260508082206 | 51 | 130 | 0.0 | 1.0 | 0.00 | 0.00 | 0.00 | 83 | 1013.0 |
| 20260508081703 | 52 | 94 | 1.0 | 1.0 | 0.00 | 0.00 | 0.00 | 83 | 1013.1 |
| 20260508081159 | 52 | 47 | 1.0 | 1.0 | 0.00 | 0.00 | 0.00 | 81 | 1012.9 |
| 20260508080657 | 52 | 170 | 0.0 | 1.0 | 0.00 | 0.00 | 0.00 | 80 | 1012.9 |
| 20260508080155 | 52 | 152 | 0.0 | 0.0 | 0.00 | 0.00 | 0.00 | 82 | 1013.0 |
| 20260508075651 | 52 | 57 | 1.0 | 1.0 | 0.00 | 0.00 | 0.00 | 82 | 1012.9 |
| 20260508075148 | 52 | 61 | 0.0 | 1.0 | 0.00 | 0.00 | 0.00 | 81 | 1013.1 |
| 20260508074646 | 52 | 33 | 1.0 | 1.0 | 0.00 | 0.00 | 0.00 | 81 | 1013.2 |
| 20260508074143 | 53 | 120 | 0.0 | 0.0 | 0.00 | 0.00 | 0.00 | 79 | 1013.1 |
| 20260508073640 | 53 | 176 | 0.0 | 0.0 | 0.00 | 0.00 | 0.00 | 80 | 1013.2 |
| 20260508073138 | 53 | 130 | 0.0 | 1.0 | 0.00 | 0.00 | 0.00 | 79 | 1013.1 |
| 20260508072633 | 52 | 94 | 1.0 | 1.0 | 0.00 | 0.00 | 0.00 | 80 | 1013.4 |
| 20260508072130 | 52 | 135 | 1.0 | 1.0 | 0.00 | 0.00 | 0.00 | 82 | 1013.2 |
| 20260508071627 | 52 | 65 | 1.0 | 1.0 | 0.00 | 0.00 | 0.00 | 82 | 1013.3 |
| 20260508071126 | 52 | 84 | 1.0 | 2.0 | 0.00 | 0.00 | 0.00 | 82 | 1013.4 |
| 20260508070623 | 52 | 41 | 2.0 | 2.0 | 0.00 | 0.00 | 0.00 | 82 | 1013.4 |
| 20260508070122 | 52 | 62 | 1.0 | 1.0 | 0.00 | 0.00 | 0.00 | 83 | 1013.3 |
| 20260508065618 | 52 | 32 | 2.0 | 2.0 | 0.00 | 0.00 | 0.00 | 82 | 1013.5 |
| 20260508065116 | 52 | 33 | 2.0 | 2.0 | 0.00 | 0.00 | 0.00 | 82 | 1013.6 |
| 20260508064614 | 52 | 23 | 2.0 | 2.0 | 0.00 | 0.00 | 0.00 | 81 | 1013.5 |
| 20260508064111 | 52 | 71 | 1.0 | 1.0 | 0.00 | 0.00 | 0.00 | 81 | 1013.7 |
| 20260508063608 | 52 | 45 | 1.0 | 1.0 | 0.00 | 0.00 | 0.00 | 81 | 1013.6 |
| 20260508063106 | 53 | 114 | 1.0 | 1.0 | 0.00 | 0.00 | 0.00 | 81 | 1013.6 |
| 20260508062558 | 52 | 75 | 0.0 | 0.0 | 0.00 | 0.00 | 0.00 | 80 | 1013.7 |
| 20260508062054 | 53 | 62 | 0.0 | 0.0 | 0.00 | 0.00 | 0.00 | 79 | 1013.5 |
| 20260508061552 | 53 | 95 | 0.0 | 0.0 | 0.00 | 0.00 | 0.00 | 79 | 1013.9 |
| 20260508061049 | 53 | 98 | 0.0 | 0.0 | 0.00 | 0.00 | 0.00 | 78 | 1014.1 |
| 20260508060546 | 53 | 115 | 0.0 | 0.0 | 0.00 | 0.00 | 0.00 | 78 | 1013.8 |
| 20260508060043 | 54 | 126 | 0.0 | 0.0 | 0.00 | 0.00 | 0.00 | 78 | 1014.0 |
| 20260508055539 | 54 | 117 | 0.0 | 0.0 | 0.00 | 0.00 | 0.00 | 75 | 1014.0 |
| 20260508055036 | 54 | 154 | 0.0 | 0.0 | 0.00 | 0.00 | 0.00 | 75 | 1014.2 |
| 20260508054532 | 54 | 156 | 0.0 | 0.0 | 0.00 | 0.00 | 0.00 | 75 | 1013.9 |
| 20260508054030 | 55 | 137 | 0.0 | 0.0 | 0.00 | 0.00 | 0.00 | 76 | 1013.9 |
| 20260508053526 | 55 | 150 | 0.0 | 0.0 | 0.00 | 0.00 | 0.00 | 73 | 1014.2 |
| 20260508053025 | 55 | 153 | 0.0 | 0.0 | 0.00 | 0.00 | 0.00 | 73 | 1014.2 |
| 20260508052521 | 56 | 158 | 0.0 | 0.0 | 0.00 | 0.00 | 0.00 | 71 | 1014.2 |
| 20260508052018 | 56 | 172 | 0.0 | 0.0 | 0.00 | 0.00 | 0.00 | 71 | 1014.1 |
| 20260508051515 | 56 | 180 | 0.0 | 0.0 | 0.00 | 0.00 | 0.00 | 72 | 1014.4 |
| 20260508051010 | 56 | 191 | 0.0 | 0.0 | 0.00 | 0.00 | 0.00 | 72 | 1014.2 |
| 20260508050507 | 57 | 194 | 0.0 | 0.0 | 0.00 | 0.00 | 0.00 | 71 | 1014.3 |
| 20260508050004 | 57 | 197 | 0.0 | 0.0 | 0.00 | 0.00 | 0.00 | 67 | 1014.3 |
| 20260508045500 | 57 | 183 | 0.0 | 0.0 | 0.00 | 0.00 | 0.00 | 69 | 1014.2 |
| 20260508044958 | 57 | 198 | 0.0 | 0.0 | 0.00 | 0.00 | 0.00 | 70 | 1014.3 |
| 20260508044455 | 58 | 198 | 0.0 | 0.0 | 0.00 | 0.00 | 0.00 | 68 | 1014.6 |
| 20260508043950 | 58 | 199 | 0.0 | 0.0 | 0.00 | 0.00 | 0.00 | 67 | 1014.6 |
| 20260508043448 | 58 | 198 | 0.0 | 0.0 | 0.00 | 0.00 | 0.00 | 67 | 1014.4 |
| 20260508042943 | 58 | 196 | 0.0 | 0.0 | 0.00 | 0.00 | 0.00 | 68 | 1014.7 |
| 20260508042442 | 59 | 205 | 0.0 | 0.0 | 0.00 | 0.00 | 0.00 | 66 | 1014.7 |
| 20260508041938 | 59 | 191 | 0.0 | 0.0 | 0.00 | 0.00 | 0.00 | 66 | 1014.6 |
| 20260508041435 | 58 | 204 | 0.0 | 0.0 | 0.00 | 0.00 | 0.00 | 67 | 1014.6 |
| 20260508040932 | 59 | 195 | 0.0 | 0.0 | 0.00 | 0.00 | 0.00 | 67 | 1014.6 |
| 20260508040429 | 59 | 190 | 0.0 | 0.0 | 0.00 | 0.00 | 0.00 | 67 | 1014.8 |
| 20260508035927 | 58 | 201 | 0.0 | 0.0 | 0.00 | 0.00 | 0.00 | 68 | 1014.7 |
| 20260508035423 | 59 | 196 | 0.0 | 0.0 | 0.00 | 0.00 | 0.00 | 68 | 1014.6 |
| 20260508034920 | 59 | 191 | 0.0 | 0.0 | 0.00 | 0.00 | 0.00 | 69 | 1014.8 |
| 20260508034418 | 59 | 200 | 0.0 | 0.0 | 0.00 | 0.00 | 0.00 | 70 | 1014.4 |
| 20260508033914 | 58 | 191 | 0.0 | 0.0 | 0.00 | 0.00 | 0.00 | 71 | 1014.7 |
| 20260508033412 | 58 | 202 | 0.0 | 0.0 | 0.00 | 0.00 | 0.00 | 70 | 1014.6 |
| 20260508032909 | 58 | 192 | 0.0 | 0.0 | 0.00 | 0.00 | 0.00 | 71 | 1014.5 |
| 20260508032407 | 58 | 193 | 0.0 | 0.0 | 0.00 | 0.00 | 0.00 | 73 | 1014.8 |
| 20260508031903 | 56 | 186 | 0.0 | 0.0 | 0.00 | 0.00 | 0.00 | 75 | 1014.6 |
| 20260508031401 | 55 | 197 | 0.0 | 0.0 | 0.00 | 0.00 | 0.00 | 79 | 1014.8 |
| 20260508030856 | 55 | 195 | 0.0 | 0.0 | 0.00 | 0.00 | 0.00 | 78 | 1014.6 |
| 20260508030354 | 55 | 196 | 0.0 | 0.0 | 0.00 | 0.00 | 0.00 | 79 | 1014.6 |
| 20260508025850 | 55 | 182 | 0.0 | 0.0 | 0.00 | 0.00 | 0.00 | 79 | 1014.7 |
| 20260508025341 | 55 | 145 | 0.0 | 0.0 | 0.00 | 0.00 | 0.00 | 78 | 1014.5 |
| 20260508024838 | 56 | 127 | 0.0 | 0.0 | 0.00 | 0.00 | 0.00 | 77 | 1014.4 |
| 20260508024335 | 56 | 133 | 0.0 | 0.0 | 0.00 | 0.00 | 0.00 | 77 | 1014.5 |
| 20260508023832 | 56 | 145 | 0.0 | 0.0 | 0.00 | 0.00 | 0.00 | 78 | 1014.4 |
| 20260508023328 | 56 | 147 | 0.0 | 0.0 | 0.00 | 0.00 | 0.00 | 76 | 1014.4 |
| 20260508022825 | 56 | 157 | 0.0 | 0.0 | 0.00 | 0.00 | 0.00 | 75 | 1014.1 |
| 20260508022321 | 57 | 234 | 0.0 | 0.0 | 0.00 | 0.00 | 0.00 | 73 | 1014.3 |
| 20260508021818 | 57 | 148 | 0.0 | 0.0 | 0.00 | 0.00 | 0.00 | 74 | 1014.1 |
| 20260508021314 | 57 | 176 | 0.0 | 0.0 | 0.00 | 0.00 | 0.00 | 71 | 1013.9 |
| 20260508020810 | 57 | 134 | 0.0 | 0.0 | 0.00 | 0.00 | 0.00 | 72 | 1013.9 |
| 20260508020308 | 58 | 169 | 0.0 | 0.0 | 0.00 | 0.00 | 0.00 | 71 | 1013.8 |
| 20260508015805 | 59 | 144 | 0.0 | 0.0 | 0.00 | 0.00 | 0.00 | 68 | 1013.7 |
| 20260508015305 | 59 | 178 | 0.0 | 0.0 | 0.00 | 0.00 | 0.00 | 66 | 1013.8 |
| 20260508014759 | 59 | 174 | 0.0 | 0.0 | 0.00 | 0.00 | 0.00 | 70 | 1013.8 |
| 20260508014256 | 59 | 137 | 0.0 | 0.0 | 0.00 | 0.00 | 0.00 | 67 | 1013.6 |
| 20260508013752 | 59 | 164 | 0.0 | 0.0 | 0.00 | 0.00 | 0.00 | 68 | 1013.6 |
| 20260508013248 | 60 | 164 | 0.0 | 0.0 | 0.00 | 0.00 | 0.00 | 67 | 1013.9 |
| 20260508012746 | 61 | 187 | 0.0 | 0.0 | 0.00 | 0.00 | 0.00 | 65 | 1013.6 |
| 20260508012242 | 61 | 190 | 0.0 | 0.0 | 0.00 | 0.00 | 0.00 | 64 | 1013.6 |
| 20260508011741 | 62 | 194 | 0.0 | 0.0 | 0.00 | 0.00 | 0.00 | 62 | 1013.5 |
| 20260508011238 | 62 | 200 | 0.0 | 0.0 | 0.00 | 0.00 | 0.00 | 59 | 1013.6 |
| 20260508010735 | 63 | 190 | 0.0 | 0.0 | 0.00 | 0.00 | 0.00 | 57 | 1013.2 |
| 20260508010233 | 63 | 188 | 0.0 | 0.0 | 0.00 | 0.00 | 0.00 | 57 | 1013.2 |
| 20260508005729 | 64 | 186 | 0.0 | 0.0 | 0.00 | 0.00 | 0.00 | 58 | 1013.5 |
| 20260508005226 | 64 | 182 | 0.0 | 0.0 | 0.00 | 0.00 | 0.00 | 54 | 1013.4 |
| 20260508004722 | 65 | 198 | 0.0 | 0.0 | 0.00 | 0.00 | 0.00 | 52 | 1013.3 |